Regional Weather Roundup
Issued by NWS

Home | Current Version | Previous Version | Text Only | Print | Product List | Glossary Off
Versions: 1 2 3 4 5 6 7 8 9 10 11 12 13 14 15 16 17 18 19 20 21 22 23 24 25 26 27 28 29 30 31 32 33 34 35 36 37 38 39 40 41 42 43 44 45 46 47 48 49 50

000
ASUS43 KDMX 280307
RWRIA

WEATHER ROUNDUP FOR IOWA
NATIONAL WEATHER SERVICE DES MOINES IA
1000 PM CDT THU AUG 27 2015

NOTE: "FAIR" INDICATES FEW OR NO CLOUDS BELOW 12,000 FEET WITH NO
SIGNIFICANT WEATHER AND/OR OBSTRUCTIONS TO VISIBILITY.

* - THESE STATIONS ARE NOT NWS STATIONS...THUS NOT UNDER NWS
QUALITY CONTROL.  THEY ALSO DO NOT REPORT WEATHER SUCH
AS PRECIPITATION OR FOG.

IAZ001>003-012>014-020>022-031>034-043>046-280400-
   NORTHWEST IOWA

CITY           SKY/WX    TMP DP  RH WIND       PRES   REMARKS
CARROLL *      CLEAR     64  64 100 E9        29.99R
CHEROKEE *     TSTM      64  64 100 N12G18    30.06R
DENISON *      CLOUDY    68  64  88 E9        29.97R
LE MARS *      CLOUDY    66  64  94 E13G22    29.96F
ORANGE CITY *  LGT RAIN  64  64 100 E13G23    29.97R
SHELDON *      CLOUDY    64  63  94 E20G30    29.94F FOG
SIOUX CITY     MOCLDY    69  65  86 E18G28    29.93R
SPENCER        TSTM      65  61  87 SE13      30.02F FOG
STORM LAKE *   MOCLDY    64  63  94 E10       30.03R
$$

IAZ055>058-069>071-079>083-090>094-280400-
   SOUTHWEST IOWA

CITY           SKY/WX    TMP DP  RH WIND       PRES   REMARKS
ATLANTIC *     PTCLDY    70  64  83 SE7       29.97S
AUDUBON *      CLEAR     64  63  94 SE7       29.99S
CLARINDA *     CLEAR     70  64  83 S8        30.01R
COUNCIL BLFS *   N/A     70  66  88 SE13      29.96R
CRESTON *      CLEAR     64  63  94 SE10G16   30.02R
HARLAN  *      CLOUDY    68  68 100 SE5       30.01R
LAMONI         MOCLDY    67  61  81 SE7       30.01R
RED OAK *      CLOUDY    68  64  88 SE10      29.97S
SHENANDOAH *   CLEAR     70  66  88 SE9G16    29.96F
$$

IAZ047>049-059>061-072>074-084-280400-
   CENTRAL IOWA

CITY           SKY/WX    TMP DP  RH WIND       PRES   REMARKS
AMES           PTCLDY    65  61  87 SE7       30.04R
ANKENY *       MOCLDY    68  61  77 SE12      30.03R
CHARITON *     PTCLDY    64  61  88 SE9       30.02F
DES MOINES     MOCLDY    69  60  73 SE13G20   30.02R
GRINNELL*      CLEAR     64  61  88 SE9       30.06S
KNOXVILLE *    PTCLDY    64  61  88 E7        30.03R
MARSHALLTOWN   PTCLDY    65  60  84 SE10      30.04R
PELLA *        PTCLDY    64  64 100 SE5       30.06R
PERRY *          N/A     64  63  94 E8        30.01R
$$

IAZ004>006-015-016-023>025-035-036-280400-
   NORTH CENTRAL IOWA

CITY           SKY/WX    TMP DP  RH WIND       PRES   REMARKS
ALGONA *       CLOUDY    64  61  88 SE7       30.04F
CLARION *      CLEAR     64  61  88 SE7       30.06R
ESTHERVILLE    CLOUDY    64  60  87 S9        30.02R
FORT DODGE *   MOCLDY    64  59  82 E7        30.04S
MASON CITY     CLOUDY    64  61  90 S10       30.08R
FOREST CITY *  CLEAR     63  61  94 S6        30.06R
IOWA FALLS *     N/A     63  61  94 SE6       30.06R
$$

IAZ007>011-017>019-026>030-037>042-050>054-066-280400-
   NORTHEAST IOWA

CITY           SKY/WX    TMP DP  RH WIND       PRES   REMARKS
CEDAR RAPIDS   PTCLDY    62  60  93 E8        30.08R
CHARLES CITY * MOCLDY    63  63 100 SE9       30.07S
CLINTON *      PTCLDY    61  57  88 E6        30.12F
DECORAH *      CLOUDY    64  61  88 SE5       30.07S
DUBUQUE        MOCLDY    62  59  90 CALM      30.11R
MONTICELLO *   CLEAR     64  61  88 CALM      30.10R
OELWEIN *        N/A    N/A N/A N/A MISG        N/A
WATERLOO         N/A     62  59  90 E7        30.06R
$$

IAZ064-065-067-068-078-280400-
   EAST CENTRAL IOWA

CITY           SKY/WX    TMP DP  RH WIND       PRES   REMARKS
DAVENPORT      PTCLDY    62  59  90 E6        30.09F
IOWA CITY      PTCLDY    63  59  87 SE6       30.08S
MT. PLEASANT *   N/A     63  59  88 E6        30.08F
MUSCATINE *    CLEAR     61  57  88 S5        30.08S
QUAD CITIES    CLEAR     62  57  83 SE5       30.08F
$$

IAZ062-063-075>077-085>089-095>099-280400-
   SOUTHEAST IOWA

CITY           SKY/WX    TMP DP  RH WIND       PRES   REMARKS
BURLINGTON     CLEAR     65  60  84 E7        30.09R
FAIRFIELD *    CLEAR     61  59  94 E7        30.07S
FORT MADISON * CLEAR     63  59  88 E5        30.09S
KEOKUK *       CLEAR     64  61  88 E8        30.07R
OSKALOOSA *      N/A     63  59  88 E6        30.07R
CENTERVILLE *  CLEAR     63  59  88 E5        30.07R
OTTUMWA        PTCLDY    63  61  93 E7        30.05R
WASHINGTON *     N/A    N/A N/A N/A MISG        N/A
$$

ABBREVIATIONS USED IN REMARKS
   TC - TEMPERATURES IN CELSIUS
  WCI - WIND CHILL INDEX
   HX - HEAT INDEX
  VSB - VISIBILITY
$$




USA.gov is the U.S. government's official web portal to all federal, state and local government web resources and services.